www.pogodaiklimat.ru

Погода и климат >> Архив погоды >> Россия >> Якутия >> Шелагонцы


ПОГОДА в Шелагонцах

  • Прогноз погоды в Шелагонцах
  • Монитор погоды в Шелагонцах
  • Климат города

АРХИВ ПОГОДЫ в Шелагонцах

Время (UTC), дата Ветер
(напр.,м/с)
 
Видим.   Явления Облачность Т
(С)
Тd
(С)
f
(%)
Тe
(С)
Тes
(С)
Комфортность P
(гПа)
Po
(гПа)
Тmin
(С)
Tmax
(С)
R
(мм)
S
(см)
00 19.03 штиль 0 50 км 4/4 1000 м
[Sc]
-25.7 -28.1 80 -26 -25 1026.7 993.9 -28.3 40
03 19.03 штиль 0 50 км 8/3 1000 м
[Sc Ac lent Cc]
-16.0 -20.2 70 -16 -14 1026.2 994.6
06 19.03 З 2 50 км 6/3 1000 м
[Sc Ac trans]
-0.5 -9.2 52 -4 -2 1024.0 994.3
09 19.03 З 3 50 км 9/9 1000 м
[Sc]
-0.4 -8.6 54 -5 -5 1025.3 995.5
12 19.03 З 2 50 км 4/4 1000 м
[Sc]
-4.2 -10.7 60 -8 -8 1026.3 996.1 +0.2
15 19.03 штиль 0 50 км 3/3 1000 м
[Sc]
-17.1 -18.3 90 -17 -17 1029.8 997.9
18 19.03 штиль 0 50 км 4/4 1000 м
[Sc]
-21.4 -23.8 81 -21 -21 1030.8 998.4
21 19.03 штиль 0 50 км 6/6 1000 м
[Sc]
-22.6 -24.4 85 -23 -23 1031.2 998.6
00 20.03 штиль 0 50 км 3/0
[Cc]
-23.3 -25.1 85 -23 -22 1031.8 999.2 -25.0 40
03 20.03 штиль 0 50 км 1/0
[Ci fib]
-12.1 -15.6 75 -12 -8 1030.4 999.2
06 20.03 З 3 50 км 1/0
[Ci fib]
-0.3 -9.4 50 -4 -2 1028.4 998.5
09 20.03 З 3 50 км 3/0
[Ci fib]
0.0 -9.4 49 -4 -4 1028.4 998.5
12 20.03 Ю 1 50 км ясно -9.0 -14.5 64 -11 -11 1029.4 998.5 +0.9
15 20.03 В 1 50 км ясно -17.0 -18.2 90 -20 -20 1030.3 998.3
18 20.03 штиль 0 50 км ясно -21.2 -23.1 85 -21 -21 1030.7 998.3
21 20.03 штиль 0 50 км ясно -24.9 -26.8 84 -25 -25 1031.3 998.4
00 21.03 штиль 0 50 км 4/0
[Cc]
-24.9 -26.8 84 -25 -24 1031.3 998.4 -25.9 40
03 21.03 штиль 0 50 км 4/0
[Ci fib]
-14.4 -18.7 70 -14 -10 1029.1 997.6
06 21.03 ЮЗ 2 50 км 4/0
[Cc]
-0.7 -9.1 53 -4 -1 1025.7 995.9
09 21.03 З 2 50 км 8/0
[Cc]
-0.1 -9.6 49 -3 -3 1024.0 994.9
12 21.03 ЮЗ 2 50 км 4/0
[Ci fib]
-6.1 -14.1 53 -10 -10 1025.0 994.6 +0.5
15 21.03 штиль 0 50 км 3/0
[Cc]
-14.2 -16.2 85 -14 -14 1025.4 994.1
18 21.03 штиль 0 50 км ясно -19.9 -21.1 90 -20 -20 1025.5 993.4
21 21.03 штиль 0 50 км 8/8 1000 м
[Sc]
-24.0 -25.9 84 -24 -24 1025.6 993.0
00 22.03 штиль 0 50 км 9/9 1000 м
[Sc]
-17.8 -19.7 85 -18 -18 1025.2 993.4 -24.4 40
03 22.03 штиль 0 50 км 6/0
[Ac trans Ci fib]
-10.1 -14.5 70 -10 -7 1024.6 993.8
06 22.03 СЗ 2 50 км 10/1 1000 м
[Sc Ac As Ci fib]
-0.6 -8.9 53 -4 -2 1023.5 993.8
09 22.03 З 2 50 км 10/4 1000 м
[Sc Ac trans]
-0.2 -9.6 49 -3 -2 1024.3 994.5
12 22.03 Ю 1 50 км 8/3 1000 м
[Sc Ac trans]
-7.1 -13.4 61 -9 -9 1025.9 995.3 +1.0
15 22.03 ЮЗ 3 50 км 4/4 1000 м
[Sc]
-14.2 -16.9 80 -21 -21 1027.5 996.1
18 22.03 штиль 0 50 км ясно -21.4 -23.2 85 -21 -21 1028.5 995.2
21 22.03 штиль 0 50 км ясно -25.2 -27.1 84 -25 -25 1028.2 995.7
00 23.03 штиль 0 50 км ясно -25.7 -27.5 85 -26 -25 1028.0 995.1 -27.3 40
03 23.03 штиль 0 50 км ясно -15.5 -18.9 75 -16 -11 1024.8 993.4
06 23.03 С 1 50 км ясно -3.2 -11.3 54 -5 -1 1020.9 991.0
09 23.03 В 3 50 км 3/0
[Ci fib]
+0.3 -11.6 40 -3 -3 1019.2 989.7
12 23.03 СВ 1 50 км 3/0
[Ac lent]
-6.2 -19.6 34 -8 -8 1019.6 989.3 +0.4
15 23.03 штиль 0 50 км ясно -14.4 -25.7 38 -14 -14 1019.8 988.6
18 23.03 СВ 1 50 км ясно -19.5 -20.6 91 -22 -22 1020.3 988.2
00 24.03 штиль 0 50 км 9/0
[Ac lent Cs]
-23.2 -25.0 85 -23 -23 1019.8 987.6 -24.4 40
03 24.03 штиль 0 50 км 10/0
[Cs]
-13.6 -17.1 75 -14 -10 1018.5 987.5
06 24.03 С 1 50 км 4/0
[Cc]
-1.0 -11.1 46 -2 +2 1016.7 987.1
09 24.03 З 3 50 км 3/3 1000 м
[Sc Ac lent]
0.0 -10.5 45 -4 -3 1017.3 987.8
12 24.03 З 1 50 км 4/0
[Ac lent]
-5.6 -13.3 55 -7 -7 1018.2 988.4 +0.3
15 24.03 ЮЗ 1 50 км 3/0
[Ac lent]
-14.2 -16.9 80 -17 -17 1020.5 984.3
18 24.03 штиль 0 50 км ясно -21.9 -23.2 89 -22 -22 1021.2 989.0
21 24.03 штиль 0 50 км 4/0
[Ac lent]
-25.3 -26.2 92 -25 -25 1020.9 988.4
00 25.03 СВ 1 50 км 10/0
[Cs]
-23.5 -25.4 84 -27 -26 1019.8 987.6 -26.4 39
03 25.03 СВ 1 50 км 10/0
[Cs]
-23.5 -25.4 84 -27 -23 1019.8 987.6 -26.4 39
06 25.03 С 1 50 км 6/0
[As trans]
-1.9 -9.9 54 -3 -1 1013.4 983.8
09 25.03 З 4 50 км 8/0
[Ci fib]
+1.1 -10.7 41 -3 -3 1012.4 982.9
12 25.03 З 4 50 км 4/4 1000 м
[Sc]
-1.2 -11.4 46 -6 -6 1012.7 983.4 +1.7
15 25.03 ЮЗ 1 50 км 3/3 1000 м
[Sc]
-13.1 -18.3 65 -15 -15 1014.3 983.4
18 25.03 штиль 0 50 км ясно -18.9 -20.8 85 -19 -19 1014.4 982.8
21 25.03 штиль 0 50 км 4/0
[Ac lent]
-22.4 -23.6 90 -22 -22 1013.8 981.9

 

Местоположение метеостанции Шелагонцы (Якутия, Россия): широта 66.25 долгота 114.20 высота над уровнем моря 236 м.

В архиве по умолчанию представлена погода в Шелагонцах за последнюю неделю. Архивные данные за месяц целиком и за предыдущие месяцы, начиная с января 2011 года, Вы можете получить, выбрав интересующий диапазон дат из раскрывающегося списка и нажав кнопку "Ввод!".

Внимание! Время в таблицах - всемирное. Для получения местного времени необходимо прибавить поправку, которая в Шелагонцах равна 9 ч.

Смотрите также архив погоды в соседних городах и на ближайших метеорологических станциях:

Погода в Полярном (Якутия, Россия) (96 км)
Погода в Эйке (Якутия, Россия) (146 км)
Погода в Хабардино (Якутия, Россия) (200 км)
Погода в Чумпуруке (Якутия, Россия) (257 км)
Погода в Оленеке (Якутия, Россия) (262 км)
Погода в Ярольине (Якутия, Россия) (269 км)
Погода в Сухане (Якутия, Россия) (316 км)
Погода в Чернышевском (Якутия, Россия) (368 км)
Погода в Нюрбе (Якутия, Россия) (383 км)
Погода в Жиганске (Якутия, Россия) (407 км)

Пояснения к столбцам:

Ветер - указаны скорость ветра в м/с - средняя за 10 мин, порывы в срок и между сроками (в фигурных скобках) и направление, откуда дует ветер: С - северный, СВ - северо-восточный, В - восточный, ЮВ - юго-восточный, Ю - южный, ЮЗ - юго-западный, З - западный, СЗ - северо-западный.
Видимость - горизонтальная дальность видимости в метрах или километрах. При видимости от 1 до 10 км при отсутствии осадков обычно наблюдается дымка, при ухудшении видимости до 1 км и менее - туман. В сухую погоду видимость может ухудшаться дымом, пылью или мглою.
Явления - указаны атмосферные явления, наблюдавшиеся в срок или в последний час перед сроком; фигурными скобками обозначены явления, наблюдавшиеся между сроками (за 1-3 часа до срока); квадратными скобками обозначены град или гололедные отложения с указанием их диаметра в мм.
Облачность - указаны через наклонную черту общая и нижняя облачность в баллах и высота нижней границы облаков в метрах; квадратными скобками обозначены формы облаков: Ci - перистые, Cs - перисто-слоистые, Cc - перисто-кучевые, Ac - высококучевые, As - высокослоистые, Sc - слоисто-кучевые, Ns - слоисто-дождевые, Cu - кучевые, Cb - кучево-дождевые. Подробнее классификацию облаков см. в Атласе облаков (PDF).
T - Температура воздуха - температура, измеренная на высоте 2 м над землей.
Td - Температура точки росы - температура, при понижении до которой содержащийся в воздухе водяной пар достигнет насыщения.
f - Относительная влажность воздуха - влажноcть воздуха, измеренная на высоте 2 м над землей.
Te - Эффективная температура - температура, которую ощущает одетый по сезону человек в тени. Характеристика душности погоды. При расчете учитывается влияние влажности воздуха и скорости ветра на теплоощущения человека.
Tes - Эффективная температура на солнце - температура, которую ощущает человек, с поправкой на солнечный нагрев. Характеристика знойности погоды. Зависит от высоты солнца над горизонтом, облачности и скорости ветра. Ночью, в пасмурную погоду, а также при ветре 12 м/с и более поправка равна нулю.
P - Атмосферное давление - приведенное к уровню моря атмосферное давление.
Po - Атмосферное давление - измеренное на уровне метеостанции атмосферное давление.
Tmin - Минимальная температура - минимум температуры воздуха на высоте 2 м над землей.
Tmax - Максимальная температура - максимум температуры воздуха на высоте 2 м над землей.
R - Количество осадков - Количество выпавших осадков, мм. При наведении курсора мыши на число - период времени, за который выпало указанное количество осадков.
S - Снежный покров - Высота снежного покрова, см. При наведении курсора мыши на число - состояние снежного покрова и степень покрытия местности в баллах.